SCP
0 0 0 0 0 0 0 0 0 0 0 0 0 0 0 0 0 0 0 0 0 0 0 0 0 0 0 0 0 0 0 0 0 0 0 0 0 0 0 0 0 0 0 0 0 0 0 0 0 0 0 0 0 0
0 0 0 0 0 0 0 0 0 0 0 0 0 0 0 0 0 0 0 0 0 0 0 0 0 0 0 0 0 0 0 0 0 0 0 0 0 0 0 0 0 0 0 0 -0 0 0 0 0 0 0 0 0 0
0 0 0 0 0 0 0 0 0 0 0 0 0 0 0 0 0 0 0 0 0 0 0 0 0 0 0 0 0 0 0 0 0 0 0 0 0 0 0 0 0 0 0 0 -0 0 0 0 0 0 0 0 0 0
0 0 0 0 0 0 0 0 0 0 0 0 0 0 0 0 0 0 0 0 0 0 0 0 0 0 0 0 0 0 0 0 0 0 0 0 0 0 0 0 0 0 -0 -0 0 0 0 0 0 0 0 0 0 0
0 0 0 0 0 0 0 0 0 0 0 0 0 0 0 0 0 0 0 0 0 0 0 0 0 0 0 0 0 0 0 0 0 0 0 0 0 0 0 0 0 0 0 0 0 -0 0 -0 0 0 0 0 0 0
0 0 0 0 0 0 0 0 0 0 0 0 0 0 0 0 0 0 0 0 0 0 0 0 0 0 0 0 0 0 0 0 0 0 0 0 0 0 0 0 0 -0 -0 0 -0 0 -0 -0 0 0 0 0 0 0
0 0 0 0 0 0 0 0 0 0 0 0 0 0 0 0 0 0 0 0 0 0 0 0 0 0 0 0 0 0 0 0 0 0 0 0 0 0 0 0 -0 -0 -0 -0 -0 -0 -0 -0 0 0 0 0 0 0
0 0 0 0 0 0 0 0 0 -0 0 0 0 0 0 0 0 0 0 0 0 0 0 0 0 0 0 0 0 0 0 0 0 0 0 0 0 0 0 -0 -0 -0 -0 -0 0 0 -0 -0 0 0 0 0 0 0
0 0 0 0 0 0 0 0 0 0 0 0 0 0 0 0 0 0 0 0 0 0 0 0 0 0 0 0 0 0 0 0 0 0 0 0 0 0 0 -0 -0 -0 -0 -0 -0 -0 -0 -0 0 0 0 0 0 0
0 0 0 0 0 0 0 0 0 0 0 0 0 0 0 0 0 0 0 0 0 0 0 0 0 0 0 0 0 0 0 0 0 0 0 0 0 0 0 -0 -0 -0 -0 -0 -0 -0 -0 0 0 0 0 0 0 0
0 0 0 0 0 0 0 0 0 0 0 0 0 0 0 0 0 0 0 0 0 0 0 0 0 0 0 0 0 0 0 0 0 0 0 0 0 0 -0 -0 -0 -0 -0 -0 0 -0 0 0 0 0 0 0 0 0
0 0 0 0 0 0 0 0 0 0 0 0 0 0 0 0 0 0 0 0 0 0 0 0 0 0 0 0 0 0 0 0 0 0 0 0 0 -0 -0 -0 -0 -0 -0 -0 -0 -0 0 0 0 0 0 0 0 0
0 0 0 0 0 0 0 0 0 0 0 0 0 0 1 0 0 0 0 0 0 0 0 0 0 0 0 0 0 0 0 0 0 0 0 0 0 0 -0 -0 -0 -0 -0 -0 -0 -0 0 0 0 0 0 0 0 0
0 0 0 0 0 0 0 0 0 0 0 0 0 0 1 0 0 0 0 0 0 0 0 0 0 0 0 0 0 0 0 0 0 0 0 0 0 -0 -0 -0 -0 -0 -0 0 0 0 0 0 0 0 0 0 0 0
0 0 0 0 0 0 -0 0 0 0 0 0 0 0 0 0 0 0 0 0 0 0 0 0 0 0 0 0 0 0 0 0 0 0 0 0 0 0 -0 -0 -0 -0 0 0 0 0 0 0 0 0 0 0 0 0
0 0 0 0 0 -0 -0 0 0 0 0 0 0 0 0 0 0 0 0 0 0 0 0 0 0 0 0 0 0 0 0 0 0 0 0 0 0 0 0 0 0 0 0 0 0 0 0 0 0 0 0 0 0 0
0 0 0 0 0 0 0 0 0 0 0 0 0 0 0 0 0 0 0 0 0 0 0 0 0 0 0 0 0 0 0 0 0 0 0 0 0 0 0 0 0 0 0 0 0 0 0 0 0 0 0 0 0 0
0 0 0 0 0 0 0 0 0 0 0 0 0 0 0 0 0 0 0 0 0 0 0 0 0 0 0 0 0 0 0 0 0 0 0 0 0 0 0 0 0 0 0 0 0 0 0 0 0 0 0 0 0 0
0 0 0 0 0 0 0 0 0 0 0 0 0 0 0 0 0 0 0 0 0 0 0 0 0 0 0 0 0 0 0 0 0 0 0 0 0 0 0 0 0 0 0 0 0 0 0 0 0 0 0 0 0 0
0 0 0 0 0 0 0 0 0 0 0 0 0 0 0 0 0 0 0 0 0 0 0 0 0 0 0 0 0 0 0 0 0 0 0 0 0 0 0 0 0 0 0 0 0 0 0 0 0 0 0 0 0 0
0 0 0 0 0 0 0 0 0 0 0 0 0 0 0 0 0 0 0 0 0 0 0 0 0 0 0 0 0 0 0 0 0 0 0 0 0 0 0 0 0 0 0 0 0 0 0 0 0 0 0 0 0 0
0 0 0 0 0 0 0 0 0 0 0 0 0 0 0 0 0 0 0 0 0 0 0 0 0 0 0 0 0 0 0 0 0 0 0 0 0 0 0 0 0 0 0 0 0 0 0 0 0 0 0 0 0 0
0 0 0 0 0 0 0 0 0 0 0 0 0 0 0 0 0 0 0 0 0 0 0 0 0 0 0 0 0 0 0 0 0 0 0 0 0 0 0 0 0 0 0 0 0 0 0 0 0 0 0 0 0 0
0 0 0 0 0 0 0 0 0 0 0 0 0 0 0 0 0 0 0 0 0 0 0 0 0 0 0 0 0 0 0 0 0 0 0 0 0 0 0 0 0 0 0 0 0 0 0 0 0 0 0 0 0 0
0 0 0 0 0 0 0 0 0 0 0 0 0 0 0 0 0 0 0 0 0 0 0 0 0 0 0 0 0 0 0 0 0 0 0 0 0 0 0 0 0 0 0 0 0 0 0 0 0 0 0 0 0 0
0 0 0 0 0 0 0 0 0 0 0 0 0 0 0 0 0 0 0 0 0 0 0 0 0 0 0 0 0 0 0 0 0 0 0 0 0 0 0 0 0 0 0 0 0 0 0 0 0 0 0 0 0 0
0 0 0 0 0 0 0 0 0 0 0 0 0 0 0 0 0 0 0 0 0 0 0 0 0 0 0 0 0 0 0 0 0 0 0 0 0 0 0 0 0 0 0 0 0 0 0 0 0 0 0 0 0 0
0 0 0 0 0 0 0 0 0 0 0 0 0 0 0 0 0 0 0 0 0 0 0 0 0 0 0 0 0 0 0 0 0 0 0 0 0 0 0 0 0 0 0 0 0 0 0 0 0 0 0 0 0 0
0 0 0 0 0 0 0 0 0 0 0 0 0 0 0 0 0 0 0 0 0 0 0 0 0 0 0 0 0 0 0 0 0 -0 -0 0 0 0 0 0 0 0 0 0 0 0 0 0 0 0 0 0 0 0
0 0 0 0 0 0 0 0 0 0 0 0 0 0 0 0 0 0 0 0 0 0 0 0 0 0 0 0 0 0 0 0 0 0 0 0 0 0 0 0 0 0 0 0 0 0 0 0 0 0 0 0 0 0
0 0 0 0 0 0 0 0 0 0 0 0 0 0 0 0 0 0 0 0 0 0 0 0 0 0 0 0 0 0 0 0 0 0 0 0 0 0 0 0 0 0 0 0 0 0 0 0 0 0 0 0 0 0
0 0 0 0 0 0 0 0 0 0 0 0 0 0 0 0 0 0 0 0 0 0 0 0 0 0 0 0 0 0 0 0 0 0 0 0 0 0 0 0 0 0 0 0 0 0 0 0 0 0 0 0 0 0
0 0 0 0 0 0 0 0 0 0 0 0 0 0 0 0 0 0 0 0 0 0 0 0 0 0 0 0 0 0 0 0 0 0 0 0 0 0 0 0 0 0 0 0 0 0 0 0 0 0 0 0 0 0
Wind_Speed_500mb
58 56 51 48 52 47 47 46 42 35 43 40 52 67 62 59 52 46 20 31 12 9 13 6 7 5 4 4 15 17 12 6 7 6 5 5 7 5 7 8 4 2 4 6 4 6 10 8 7 10 12 11 11 13
60 58 52 51 53 48 48 46 42 36 49 42 54 71 67 61 54 46 17 33 24 12 11 10 7 5 5 4 2 12 4 9 6 7 3 5 8 8 13 10 3 6 8 5 12 9 17 20 28 19 13 12 12 14
61 60 52 52 54 50 48 47 43 38 52 54 50 74 73 64 57 51 20 30 18 9 12 9 7 9 8 10 17 8 6 7 7 12 9 4 5 5 10 10 11 7 5 6 14 13 19 20 19 17 16 13 11 12
61 56 53 53 55 51 48 47 45 40 46 63 42 69 75 65 59 54 30 27 18 6 8 8 5 7 13 14 19 10 10 17 23 12 7 4 6 6 5 8 3 8 18 14 12 18 19 15 17 18 16 12 11 13
60 55 54 54 56 51 49 48 45 45 40 67 36 65 73 66 59 50 32 34 30 4 7 10 3 11 1 18 17 20 28 23 14 8 5 6 7 7 6 5 9 12 9 6 9 29 5 30 23 17 12 10 11 12
61 55 55 55 56 50 50 49 45 44 42 59 33 65 72 68 59 35 13 32 35 19 4 9 4 5 11 19 26 26 23 11 9 9 10 8 4 5 9 5 10 15 15 8 20 19 25 34 25 17 13 11 13 16
62 56 57 56 56 51 50 50 46 39 59 51 15 71 73 70 63 34 8 24 41 21 5 9 12 2 11 17 15 14 15 11 10 9 7 7 7 3 4 6 24 25 26 38 39 41 32 27 19 17 14 14 19 18
62 59 58 58 54 53 51 50 47 39 44 61 29 76 72 64 49 26 16 33 43 11 5 4 8 14 5 9 12 9 9 9 13 7 6 4 9 3 4 23 34 34 38 36 19 13 27 29 26 18 15 16 19 16
62 62 60 58 54 56 54 51 46 33 59 61 47 76 64 43 32 15 16 42 38 7 4 6 14 12 4 7 9 8 7 6 2 5 5 5 6 6 13 40 41 45 29 33 27 29 31 27 23 18 17 17 19 16
65 62 62 58 59 57 55 52 42 42 62 34 94 50 24 39 43 35 22 13 10 9 7 5 7 9 5 7 7 6 6 3 6 5 3 7 6 14 19 34 41 34 37 36 34 28 25 23 20 18 17 17 19 18
66 65 62 58 59 59 52 50 49 51 54 54 30 16 43 64 46 9 13 17 16 13 15 11 10 13 3 6 8 5 5 3 7 8 5 8 7 21 27 38 41 34 37 25 16 21 19 18 20 19 18 19 21 18
67 64 61 59 59 60 56 48 56 60 28 35 31 68 58 29 10 12 14 12 13 16 24 24 21 17 9 9 7 3 3 3 5 11 6 6 10 26 38 44 41 40 32 26 24 23 21 20 18 18 18 20 22 18
67 63 58 60 61 59 56 51 64 50 49 62 52 21 25 9 9 20 29 18 15 30 32 29 23 13 10 8 8 5 8 4 13 7 5 5 25 31 43 47 44 37 32 29 26 22 19 18 17 18 19 21 24 22
64 59 60 61 59 59 47 72 63 32 10 10 11 13 13 15 15 12 27 25 24 38 52 48 20 9 10 7 5 8 5 10 8 7 7 13 31 40 47 47 48 41 33 28 24 20 20 19 19 19 20 21 20 19
61 60 60 57 59 50 36 59 50 30 3 11 14 15 13 16 33 33 48 40 37 58 60 41 18 8 7 7 3 7 9 8 9 8 6 25 39 47 51 49 44 39 33 27 22 20 19 20 18 20 20 19 18 20
60 59 57 58 48 47 39 42 35 22 3 6 5 13 34 36 33 44 52 48 57 64 59 38 10 9 6 7 9 10 8 8 8 10 22 37 45 49 51 46 40 35 30 26 22 20 20 20 19 20 21 20 20 21
60 33 61 55 52 42 48 35 16 11 5 7 8 26 27 41 45 52 57 55 62 65 27 16 14 12 12 9 10 5 5 7 20 21 28 39 51 53 49 45 39 34 28 24 21 20 21 22 21 22 20 21 21 22
46 60 64 61 50 45 32 13 7 4 6 8 17 26 17 44 52 41 25 52 65 59 39 9 14 11 10 15 11 11 14 19 20 23 34 44 49 48 45 43 36 30 27 23 20 21 20 23 22 20 21 21 22 24
57 66 63 58 51 20 8 11 0 6 12 10 23 18 24 27 27 25 31 57 60 45 27 11 7 8 7 6 17 28 30 25 30 31 39 43 45 45 42 38 33 29 25 22 21 17 18 21 20 26 25 21 18 19
57 56 54 47 36 7 6 6 5 7 7 9 17 22 22 20 19 29 49 40 45 44 12 5 5 13 20 19 22 31 33 36 41 46 43 43 42 43 41 36 29 28 24 22 20 21 20 20 23 26 26 17 18 21
54 47 41 37 12 4 6 5 5 9 12 13 15 17 15 22 27 37 38 37 40 31 11 9 22 24 28 23 22 28 32 35 36 42 58 55 47 41 37 30 29 25 23 22 20 21 21 18 23 24 21 15 15 18
53 44 28 32 5 2 2 4 9 12 11 14 10 11 17 23 25 17 25 38 34 19 14 21 20 24 24 23 26 25 33 34 24 38 45 54 53 46 37 33 30 26 23 20 20 19 20 20 22 21 18 17 17 16
40 31 10 7 4 2 6 9 6 8 7 8 8 8 8 9 11 21 14 17 11 18 18 22 27 26 27 28 27 26 29 29 34 39 48 44 41 38 34 32 28 28 25 22 20 19 19 22 25 21 20 19 17 15
36 7 6 7 3 3 8 7 9 10 11 6 6 11 8 10 15 6 8 15 17 25 23 30 31 35 33 31 27 29 29 27 34 42 42 44 41 35 32 31 28 24 22 22 20 19 18 19 22 20 18 18 17 17
3 2 4 7 15 11 7 6 6 6 8 7 8 8 8 11 9 4 7 15 27 30 30 31 29 25 30 28 26 28 31 31 41 43 38 36 37 36 32 29 26 24 22 22 22 20 19 19 19 18 17 17 16 16
5 10 10 6 5 8 5 8 7 13 10 7 7 11 7 7 9 8 10 26 31 34 36 37 32 26 22 22 32 35 33 31 35 37 37 36 36 38 37 33 28 23 24 19 19 21 22 21 20 20 18 18 20 20
6 5 7 4 13 22 14 17 24 10 8 7 9 11 7 9 7 6 15 20 24 30 33 29 27 27 36 39 34 36 36 31 29 32 33 32 30 27 27 25 24 21 23 21 18 17 18 20 19 18 16 14 13 14
6 2 14 20 17 22 16 9 7 5 5 10 14 5 7 5 5 10 19 27 32 33 37 36 37 40 44 44 42 41 38 36 35 31 32 30 27 25 24 21 23 22 23 21 17 13 15 16 15 15 15 14 13 13
4 9 31 31 21 15 12 7 6 6 8 9 5 5 5 6 13 20 31 34 41 42 46 51 48 47 46 43 40 36 34 35 34 35 34 31 28 25 25 22 24 21 21 22 19 16 14 13 15 15 15 14 15 15
6 6 12 12 10 8 8 7 14 15 14 15 16 14 14 14 15 27 33 41 38 37 47 51 53 50 50 46 39 34 31 24 23 27 31 29 27 26 29 26 23 19 19 22 21 20 19 19 19 19 18 17 18 19
9 10 13 15 11 21 28 28 29 26 18 20 21 22 18 14 13 18 27 32 32 43 49 49 43 41 36 30 33 33 31 25 22 24 21 21 19 18 21 22 21 22 22 21 21 21 18 19 19 19 21 24 25 27
12 11 16 10 13 15 14 12 13 16 14 16 16 14 15 13 8 8 28 35 39 40 41 43 41 36 32 32 31 29 24 24 20 16 16 16 16 16 18 19 20 21 20 20 20 20 20 22 23 26 29 30 30 31
31 35 37 27 16 11 9 11 9 10 11 8 6 9 9 6 8 8 31 39 37 40 42 40 38 38 37 34 31 26 22 19 19 19 19 17 16 18 16 15 16 18 19 18 19 21 25 28 32 33 34 34 36 36
Wind_Direction_500mb
224 224 222 223 217 218 216 217 219 221 226 221 195 192 196 198 197 197 213 207 203 255 282 283 292 286 264 254 168 144 160 174 154 133 170 139 173 122 129 92 104 133 183 118 165 154 142 22 201 315 88 80 34 15
220 222 218 219 215 215 214 216 217 215 217 210 198 199 197 197 196 195 204 206 212 242 280 277 270 253 245 280 13 173 55 110 87 121 160 145 157 181 163 135 151 164 15 68 358 63 106 76 94 101 92 79 42 18
217 218 215 215 212 212 211 213 212 215 212 210 199 200 197 195 193 195 193 202 202 249 262 234 235 278 290 231 196 206 141 134 111 115 123 107 139 229 170 119 133 114 122 99 186 136 129 115 112 106 95 82 50 35
212 214 211 211 209 209 208 209 208 211 216 207 197 195 194 191 191 194 193 203 198 231 268 146 260 281 278 206 188 173 165 138 129 119 115 132 131 293 102 104 147 43 167 139 95 135 137 144 138 126 105 79 58 61
209 210 205 207 205 205 204 205 204 206 216 199 188 191 190 186 189 192 205 201 197 211 349 139 151 2 88 161 156 142 138 123 140 135 126 96 110 161 95 176 140 180 137 227 93 148 76 143 147 132 109 79 72 87
206 202 200 202 201 201 201 200 201 204 205 199 176 187 184 182 180 174 211 219 200 202 264 181 139 48 89 113 133 137 137 110 100 91 91 94 114 268 180 139 113 117 110 108 129 126 124 137 133 126 110 97 99 99
201 196 197 197 197 196 197 195 196 202 190 195 142 180 181 179 177 176 196 179 189 188 229 164 142 148 143 115 108 94 102 89 88 97 77 115 142 260 209 149 142 129 119 118 121 118 121 136 142 131 120 116 111 111
195 193 195 193 193 191 194 191 192 196 198 192 175 174 174 171 174 204 208 173 175 185 207 202 116 172 120 123 111 82 101 88 43 87 111 144 158 222 191 126 138 135 131 129 125 111 140 140 132 132 131 129 128 125
190 192 190 188 188 188 187 187 188 193 190 188 171 159 154 166 178 201 182 163 170 170 210 219 173 154 118 88 95 79 69 88 73 129 108 236 148 216 134 158 155 151 150 145 130 127 133 137 140 141 143 144 145 138
187 188 184 185 183 184 181 184 183 179 191 182 153 141 148 173 163 140 130 148 170 211 223 227 160 136 144 143 99 121 72 124 178 83 143 238 195 102 148 162 158 153 150 145 139 149 152 151 153 154 153 154 156 148
185 181 180 182 181 180 183 185 178 181 182 164 151 135 144 151 146 142 153 181 162 196 189 162 171 125 140 147 109 57 123 180 184 121 247 183 205 147 151 153 155 147 146 140 144 153 157 164 162 159 157 158 158 149
179 176 178 178 178 178 182 186 182 175 177 153 136 130 133 153 166 180 172 163 198 189 161 165 147 133 133 102 106 121 107 204 155 150 224 219 106 150 155 155 151 147 146 135 134 136 138 144 152 157 161 166 162 159
172 174 175 174 175 179 184 185 171 167 135 132 130 140 156 165 186 188 179 171 177 157 162 154 138 125 110 104 107 171 178 136 142 198 226 69 137 152 156 153 148 148 143 136 132 130 133 135 138 145 158 163 168 162
169 171 170 171 175 182 194 177 181 172 166 133 129 145 182 180 210 194 172 161 137 154 158 155 125 115 123 135 144 155 87 168 190 212 213 131 153 154 156 156 152 150 147 141 137 136 133 130 134 138 147 157 159 165
165 165 165 170 179 182 177 181 189 186 213 167 163 170 185 132 145 156 155 138 155 157 154 151 119 112 105 128 152 120 171 205 211 214 112 142 153 154 156 157 154 151 149 146 145 143 139 136 138 141 152 156 165 173
159 157 168 172 170 161 168 167 191 192 242 173 167 133 150 142 147 152 160 148 156 157 154 150 133 168 141 149 176 190 193 212 162 142 127 146 151 154 153 154 153 151 151 148 148 147 145 143 149 151 156 156 163 164
149 139 168 160 160 155 155 159 161 184 160 160 140 144 147 153 158 158 155 155 162 160 161 149 165 162 125 185 182 187 202 112 128 129 142 153 153 151 150 149 150 148 147 147 149 146 148 154 150 151 155 160 162 161
136 161 154 161 155 140 145 156 160 155 170 116 141 148 155 155 157 155 157 162 164 170 161 148 129 181 163 171 171 157 137 123 119 132 142 147 149 148 149 148 149 151 151 151 150 148 154 151 153 159 162 164 165 164
151 152 155 150 150 117 119 198 188 68 67 92 127 123 141 142 151 154 158 160 167 160 133 140 150 164 138 142 150 147 141 135 131 130 139 145 147 147 148 150 151 150 152 150 146 148 159 156 162 164 162 160 159 164
150 151 152 152 156 121 115 144 133 91 110 133 112 112 116 125 127 136 147 156 164 168 167 136 104 140 127 136 148 151 145 146 140 135 141 149 152 152 156 154 151 153 147 146 145 143 144 148 157 163 163 172 177 180
142 151 153 160 146 36 134 130 108 103 112 88 99 94 87 122 121 138 148 160 165 177 126 112 125 105 116 124 132 143 149 150 153 155 157 157 160 159 154 155 151 150 151 151 152 158 143 157 164 164 170 170 181 183
142 154 148 174 107 105 2 150 110 108 80 100 84 84 108 127 133 139 145 168 176 149 137 141 130 134 136 136 141 143 155 153 154 154 156 157 157 159 160 158 155 158 155 158 158 158 157 161 164 169 175 183 172 174
143 147 100 155 43 42 88 88 100 62 104 106 107 91 97 115 136 134 145 167 150 156 144 147 161 161 165 157 150 150 153 148 142 149 153 156 157 157 158 159 163 161 159 157 156 157 159 171 170 166 177 174 179 187
152 139 126 133 159 297 99 71 82 94 107 102 108 114 114 111 142 152 138 157 147 152 152 159 150 143 138 132 132 140 143 146 147 146 154 155 155 157 161 162 163 166 169 167 164 162 166 166 181 176 183 188 194 201
12 169 173 178 201 172 120 100 95 102 109 127 105 114 128 152 150 133 134 148 157 156 157 152 149 149 145 142 144 153 151 149 150 152 155 160 157 153 156 161 165 174 173 178 181 181 183 185 184 189 195 199 206 216
248 197 208 212 141 125 117 112 122 126 117 94 88 120 134 136 154 150 156 162 165 169 169 166 162 154 151 157 155 153 152 153 159 158 159 166 166 167 165 167 173 185 188 185 193 192 195 198 200 205 213 223 229 231
245 158 145 131 129 124 109 103 122 114 108 115 144 149 151 145 141 132 154 153 163 173 174 171 170 163 159 152 152 155 157 157 160 166 163 163 166 170 171 173 179 187 184 176 177 182 191 198 203 214 219 226 234 248
299 359 125 132 116 116 113 100 77 75 104 140 148 111 120 122 135 159 165 165 159 159 162 159 158 157 155 156 157 159 160 164 165 161 151 158 166 166 170 170 177 181 174 176 178 184 191 197 201 205 210 221 247 273
89 121 126 115 96 67 48 56 98 106 113 143 101 96 99 94 143 149 156 157 154 155 155 152 151 156 155 156 158 160 164 166 160 162 169 174 177 180 179 182 190 189 196 208 217 223 221 210 210 214 228 243 258 272
86 138 117 70 67 63 38 43 111 114 101 100 109 105 94 103 129 149 152 156 154 154 156 159 158 159 157 158 157 160 165 160 174 187 191 195 200 196 191 192 194 199 199 216 232 238 244 246 240 241 254 262 273 276
100 93 78 70 78 91 99 99 93 88 84 83 93 116 118 117 112 141 153 155 157 160 160 156 155 160 164 164 163 156 154 154 158 164 161 172 173 179 187 196 202 206 204 206 223 237 238 244 242 253 263 268 271 271
61 98 117 108 114 125 107 89 80 86 79 90 95 112 114 121 105 135 166 162 157 157 163 167 167 163 161 159 157 159 163 165 169 167 166 164 170 181 192 199 202 205 209 215 226 234 239 247 257 265 273 274 275 276
102 109 110 107 118 126 117 108 87 89 76 84 94 95 99 87 116 138 172 169 167 169 170 173 173 167 163 165 166 168 175 182 184 181 180 184 185 175 170 179 190 207 216 224 237 248 258 264 269 271 272 272 273 274
Wind_Speed_850mb
58 56 51 48 52 47 47 46 42 35 43 40 52 67 62 59 52 46 20 31 12 9 13 6 7 5 4 4 15 17 12 6 7 6 5 5 7 5 7 8 4 2 4 6 4 6 10 8 7 10 12 11 11 13
60 58 52 51 53 48 48 46 42 36 49 42 54 71 67 61 54 46 17 33 24 12 11 10 7 5 5 4 2 12 4 9 6 7 3 5 8 8 13 10 3 6 8 5 12 9 17 20 28 19 13 12 12 14
61 60 52 52 54 50 48 47 43 38 52 54 50 74 73 64 57 51 20 30 18 9 12 9 7 9 8 10 17 8 6 7 7 12 9 4 5 5 10 10 11 7 5 6 14 13 19 20 19 17 16 13 11 12
61 56 53 53 55 51 48 47 45 40 46 63 42 69 75 65 59 54 30 27 18 6 8 8 5 7 13 14 19 10 10 17 23 12 7 4 6 6 5 8 3 8 18 14 12 18 19 15 17 18 16 12 11 13
60 55 54 54 56 51 49 48 45 45 40 67 36 65 73 66 59 50 32 34 30 4 7 10 3 11 1 18 17 20 28 23 14 8 5 6 7 7 6 5 9 12 9 6 9 29 5 30 23 17 12 10 11 12
61 55 55 55 56 50 50 49 45 44 42 59 33 65 72 68 59 35 13 32 35 19 4 9 4 5 11 19 26 26 23 11 9 9 10 8 4 5 9 5 10 15 15 8 20 19 25 34 25 17 13 11 13 16
62 56 57 56 56 51 50 50 46 39 59 51 15 71 73 70 63 34 8 24 41 21 5 9 12 2 11 17 15 14 15 11 10 9 7 7 7 3 4 6 24 25 26 38 39 41 32 27 19 17 14 14 19 18
62 59 58 58 54 53 51 50 47 39 44 61 29 76 72 64 49 26 16 33 43 11 5 4 8 14 5 9 12 9 9 9 13 7 6 4 9 3 4 23 34 34 38 36 19 13 27 29 26 18 15 16 19 16
62 62 60 58 54 56 54 51 46 33 59 61 47 76 64 43 32 15 16 42 38 7 4 6 14 12 4 7 9 8 7 6 2 5 5 5 6 6 13 40 41 45 29 33 27 29 31 27 23 18 17 17 19 16
65 62 62 58 59 57 55 52 42 42 62 34 94 50 24 39 43 35 22 13 10 9 7 5 7 9 5 7 7 6 6 3 6 5 3 7 6 14 19 34 41 34 37 36 34 28 25 23 20 18 17 17 19 18
66 65 62 58 59 59 52 50 49 51 54 54 30 16 43 64 46 9 13 17 16 13 15 11 10 13 3 6 8 5 5 3 7 8 5 8 7 21 27 38 41 34 37 25 16 21 19 18 20 19 18 19 21 18
67 64 61 59 59 60 56 48 56 60 28 35 31 68 58 29 10 12 14 12 13 16 24 24 21 17 9 9 7 3 3 3 5 11 6 6 10 26 38 44 41 40 32 26 24 23 21 20 18 18 18 20 22 18
67 63 58 60 61 59 56 51 64 50 49 62 52 21 25 9 9 20 29 18 15 30 32 29 23 13 10 8 8 5 8 4 13 7 5 5 25 31 43 47 44 37 32 29 26 22 19 18 17 18 19 21 24 22
64 59 60 61 59 59 47 72 63 32 10 10 11 13 13 15 15 12 27 25 24 38 52 48 20 9 10 7 5 8 5 10 8 7 7 13 31 40 47 47 48 41 33 28 24 20 20 19 19 19 20 21 20 19
61 60 60 57 59 50 36 59 50 30 3 11 14 15 13 16 33 33 48 40 37 58 60 41 18 8 7 7 3 7 9 8 9 8 6 25 39 47 51 49 44 39 33 27 22 20 19 20 18 20 20 19 18 20
60 59 57 58 48 47 39 42 35 22 3 6 5 13 34 36 33 44 52 48 57 64 59 38 10 9 6 7 9 10 8 8 8 10 22 37 45 49 51 46 40 35 30 26 22 20 20 20 19 20 21 20 20 21
60 33 61 55 52 42 48 35 16 11 5 7 8 26 27 41 45 52 57 55 62 65 27 16 14 12 12 9 10 5 5 7 20 21 28 39 51 53 49 45 39 34 28 24 21 20 21 22 21 22 20 21 21 22
46 60 64 61 50 45 32 13 7 4 6 8 17 26 17 44 52 41 25 52 65 59 39 9 14 11 10 15 11 11 14 19 20 23 34 44 49 48 45 43 36 30 27 23 20 21 20 23 22 20 21 21 22 24
57 66 63 58 51 20 8 11 0 6 12 10 23 18 24 27 27 25 31 57 60 45 27 11 7 8 7 6 17 28 30 25 30 31 39 43 45 45 42 38 33 29 25 22 21 17 18 21 20 26 25 21 18 19
57 56 54 47 36 7 6 6 5 7 7 9 17 22 22 20 19 29 49 40 45 44 12 5 5 13 20 19 22 31 33 36 41 46 43 43 42 43 41 36 29 28 24 22 20 21 20 20 23 26 26 17 18 21
54 47 41 37 12 4 6 5 5 9 12 13 15 17 15 22 27 37 38 37 40 31 11 9 22 24 28 23 22 28 32 35 36 42 58 55 47 41 37 30 29 25 23 22 20 21 21 18 23 24 21 15 15 18
53 44 28 32 5 2 2 4 9 12 11 14 10 11 17 23 25 17 25 38 34 19 14 21 20 24 24 23 26 25 33 34 24 38 45 54 53 46 37 33 30 26 23 20 20 19 20 20 22 21 18 17 17 16
40 31 10 7 4 2 6 9 6 8 7 8 8 8 8 9 11 21 14 17 11 18 18 22 27 26 27 28 27 26 29 29 34 39 48 44 41 38 34 32 28 28 25 22 20 19 19 22 25 21 20 19 17 15
36 7 6 7 3 3 8 7 9 10 11 6 6 11 8 10 15 6 8 15 17 25 23 30 31 35 33 31 27 29 29 27 34 42 42 44 41 35 32 31 28 24 22 22 20 19 18 19 22 20 18 18 17 17
3 2 4 7 15 11 7 6 6 6 8 7 8 8 8 11 9 4 7 15 27 30 30 31 29 25 30 28 26 28 31 31 41 43 38 36 37 36 32 29 26 24 22 22 22 20 19 19 19 18 17 17 16 16
5 10 10 6 5 8 5 8 7 13 10 7 7 11 7 7 9 8 10 26 31 34 36 37 32 26 22 22 32 35 33 31 35 37 37 36 36 38 37 33 28 23 24 19 19 21 22 21 20 20 18 18 20 20
6 5 7 4 13 22 14 17 24 10 8 7 9 11 7 9 7 6 15 20 24 30 33 29 27 27 36 39 34 36 36 31 29 32 33 32 30 27 27 25 24 21 23 21 18 17 18 20 19 18 16 14 13 14
6 2 14 20 17 22 16 9 7 5 5 10 14 5 7 5 5 10 19 27 32 33 37 36 37 40 44 44 42 41 38 36 35 31 32 30 27 25 24 21 23 22 23 21 17 13 15 16 15 15 15 14 13 13
4 9 31 31 21 15 12 7 6 6 8 9 5 5 5 6 13 20 31 34 41 42 46 51 48 47 46 43 40 36 34 35 34 35 34 31 28 25 25 22 24 21 21 22 19 16 14 13 15 15 15 14 15 15
6 6 12 12 10 8 8 7 14 15 14 15 16 14 14 14 15 27 33 41 38 37 47 51 53 50 50 46 39 34 31 24 23 27 31 29 27 26 29 26 23 19 19 22 21 20 19 19 19 19 18 17 18 19
9 10 13 15 11 21 28 28 29 26 18 20 21 22 18 14 13 18 27 32 32 43 49 49 43 41 36 30 33 33 31 25 22 24 21 21 19 18 21 22 21 22 22 21 21 21 18 19 19 19 21 24 25 27
12 11 16 10 13 15 14 12 13 16 14 16 16 14 15 13 8 8 28 35 39 40 41 43 41 36 32 32 31 29 24 24 20 16 16 16 16 16 18 19 20 21 20 20 20 20 20 22 23 26 29 30 30 31
31 35 37 27 16 11 9 11 9 10 11 8 6 9 9 6 8 8 31 39 37 40 42 40 38 38 37 34 31 26 22 19 19 19 19 17 16 18 16 15 16 18 19 18 19 21 25 28 32 33 34 34 36 36
Wind_Direction_850mb
224 224 222 223 217 218 216 217 219 221 226 221 195 192 196 198 197 197 213 207 203 255 282 283 292 286 264 254 168 144 160 174 154 133 170 139 173 122 129 92 104 133 183 118 165 154 142 22 201 315 88 80 34 15
220 222 218 219 215 215 214 216 217 215 217 210 198 199 197 197 196 195 204 206 212 242 280 277 270 253 245 280 13 173 55 110 87 121 160 145 157 181 163 135 151 164 15 68 358 63 106 76 94 101 92 79 42 18
217 218 215 215 212 212 211 213 212 215 212 210 199 200 197 195 193 195 193 202 202 249 262 234 235 278 290 231 196 206 141 134 111 115 123 107 139 229 170 119 133 114 122 99 186 136 129 115 112 106 95 82 50 35
212 214 211 211 209 209 208 209 208 211 216 207 197 195 194 191 191 194 193 203 198 231 268 146 260 281 278 206 188 173 165 138 129 119 115 132 131 293 102 104 147 43 167 139 95 135 137 144 138 126 105 79 58 61
209 210 205 207 205 205 204 205 204 206 216 199 188 191 190 186 189 192 205 201 197 211 349 139 151 2 88 161 156 142 138 123 140 135 126 96 110 161 95 176 140 180 137 227 93 148 76 143 147 132 109 79 72 87
206 202 200 202 201 201 201 200 201 204 205 199 176 187 184 182 180 174 211 219 200 202 264 181 139 48 89 113 133 137 137 110 100 91 91 94 114 268 180 139 113 117 110 108 129 126 124 137 133 126 110 97 99 99
201 196 197 197 197 196 197 195 196 202 190 195 142 180 181 179 177 176 196 179 189 188 229 164 142 148 143 115 108 94 102 89 88 97 77 115 142 260 209 149 142 129 119 118 121 118 121 136 142 131 120 116 111 111
195 193 195 193 193 191 194 191 192 196 198 192 175 174 174 171 174 204 208 173 175 185 207 202 116 172 120 123 111 82 101 88 43 87 111 144 158 222 191 126 138 135 131 129 125 111 140 140 132 132 131 129 128 125
190 192 190 188 188 188 187 187 188 193 190 188 171 159 154 166 178 201 182 163 170 170 210 219 173 154 118 88 95 79 69 88 73 129 108 236 148 216 134 158 155 151 150 145 130 127 133 137 140 141 143 144 145 138
187 188 184 185 183 184 181 184 183 179 191 182 153 141 148 173 163 140 130 148 170 211 223 227 160 136 144 143 99 121 72 124 178 83 143 238 195 102 148 162 158 153 150 145 139 149 152 151 153 154 153 154 156 148
185 181 180 182 181 180 183 185 178 181 182 164 151 135 144 151 146 142 153 181 162 196 189 162 171 125 140 147 109 57 123 180 184 121 247 183 205 147 151 153 155 147 146 140 144 153 157 164 162 159 157 158 158 149
179 176 178 178 178 178 182 186 182 175 177 153 136 130 133 153 166 180 172 163 198 189 161 165 147 133 133 102 106 121 107 204 155 150 224 219 106 150 155 155 151 147 146 135 134 136 138 144 152 157 161 166 162 159
172 174 175 174 175 179 184 185 171 167 135 132 130 140 156 165 186 188 179 171 177 157 162 154 138 125 110 104 107 171 178 136 142 198 226 69 137 152 156 153 148 148 143 136 132 130 133 135 138 145 158 163 168 162
169 171 170 171 175 182 194 177 181 172 166 133 129 145 182 180 210 194 172 161 137 154 158 155 125 115 123 135 144 155 87 168 190 212 213 131 153 154 156 156 152 150 147 141 137 136 133 130 134 138 147 157 159 165
165 165 165 170 179 182 177 181 189 186 213 167 163 170 185 132 145 156 155 138 155 157 154 151 119 112 105 128 152 120 171 205 211 214 112 142 153 154 156 157 154 151 149 146 145 143 139 136 138 141 152 156 165 173
159 157 168 172 170 161 168 167 191 192 242 173 167 133 150 142 147 152 160 148 156 157 154 150 133 168 141 149 176 190 193 212 162 142 127 146 151 154 153 154 153 151 151 148 148 147 145 143 149 151 156 156 163 164
149 139 168 160 160 155 155 159 161 184 160 160 140 144 147 153 158 158 155 155 162 160 161 149 165 162 125 185 182 187 202 112 128 129 142 153 153 151 150 149 150 148 147 147 149 146 148 154 150 151 155 160 162 161
136 161 154 161 155 140 145 156 160 155 170 116 141 148 155 155 157 155 157 162 164 170 161 148 129 181 163 171 171 157 137 123 119 132 142 147 149 148 149 148 149 151 151 151 150 148 154 151 153 159 162 164 165 164
151 152 155 150 150 117 119 198 188 68 67 92 127 123 141 142 151 154 158 160 167 160 133 140 150 164 138 142 150 147 141 135 131 130 139 145 147 147 148 150 151 150 152 150 146 148 159 156 162 164 162 160 159 164
150 151 152 152 156 121 115 144 133 91 110 133 112 112 116 125 127 136 147 156 164 168 167 136 104 140 127 136 148 151 145 146 140 135 141 149 152 152 156 154 151 153 147 146 145 143 144 148 157 163 163 172 177 180
142 151 153 160 146 36 134 130 108 103 112 88 99 94 87 122 121 138 148 160 165 177 126 112 125 105 116 124 132 143 149 150 153 155 157 157 160 159 154 155 151 150 151 151 152 158 143 157 164 164 170 170 181 183
142 154 148 174 107 105 2 150 110 108 80 100 84 84 108 127 133 139 145 168 176 149 137 141 130 134 136 136 141 143 155 153 154 154 156 157 157 159 160 158 155 158 155 158 158 158 157 161 164 169 175 183 172 174
143 147 100 155 43 42 88 88 100 62 104 106 107 91 97 115 136 134 145 167 150 156 144 147 161 161 165 157 150 150 153 148 142 149 153 156 157 157 158 159 163 161 159 157 156 157 159 171 170 166 177 174 179 187
152 139 126 133 159 297 99 71 82 94 107 102 108 114 114 111 142 152 138 157 147 152 152 159 150 143 138 132 132 140 143 146 147 146 154 155 155 157 161 162 163 166 169 167 164 162 166 166 181 176 183 188 194 201
12 169 173 178 201 172 120 100 95 102 109 127 105 114 128 152 150 133 134 148 157 156 157 152 149 149 145 142 144 153 151 149 150 152 155 160 157 153 156 161 165 174 173 178 181 181 183 185 184 189 195 199 206 216
248 197 208 212 141 125 117 112 122 126 117 94 88 120 134 136 154 150 156 162 165 169 169 166 162 154 151 157 155 153 152 153 159 158 159 166 166 167 165 167 173 185 188 185 193 192 195 198 200 205 213 223 229 231
245 158 145 131 129 124 109 103 122 114 108 115 144 149 151 145 141 132 154 153 163 173 174 171 170 163 159 152 152 155 157 157 160 166 163 163 166 170 171 173 179 187 184 176 177 182 191 198 203 214 219 226 234 248
299 359 125 132 116 116 113 100 77 75 104 140 148 111 120 122 135 159 165 165 159 159 162 159 158 157 155 156 157 159 160 164 165 161 151 158 166 166 170 170 177 181 174 176 178 184 191 197 201 205 210 221 247 273
89 121 126 115 96 67 48 56 98 106 113 143 101 96 99 94 143 149 156 157 154 155 155 152 151 156 155 156 158 160 164 166 160 162 169 174 177 180 179 182 190 189 196 208 217 223 221 210 210 214 228 243 258 272
86 138 117 70 67 63 38 43 111 114 101 100 109 105 94 103 129 149 152 156 154 154 156 159 158 159 157 158 157 160 165 160 174 187 191 195 200 196 191 192 194 199 199 216 232 238 244 246 240 241 254 262 273 276
100 93 78 70 78 91 99 99 93 88 84 83 93 116 118 117 112 141 153 155 157 160 160 156 155 160 164 164 163 156 154 154 158 164 161 172 173 179 187 196 202 206 204 206 223 237 238 244 242 253 263 268 271 271
61 98 117 108 114 125 107 89 80 86 79 90 95 112 114 121 105 135 166 162 157 157 163 167 167 163 161 159 157 159 163 165 169 167 166 164 170 181 192 199 202 205 209 215 226 234 239 247 257 265 273 274 275 276
102 109 110 107 118 126 117 108 87 89 76 84 94 95 99 87 116 138 172 169 167 169 170 173 173 167 163 165 166 168 175 182 184 181 180 184 185 175 170 179 190 207 216 224 237 248 258 264 269 271 272 272 273 274